Overview Statistics Trail Chart Weather Telemetry Raw packets
 

This is the latest recevied weather packets stored in our database for station/object AI5BL. If no packets are shown the sender has not sent any weather packets the latest 10 day(s).

<< 74 75 76 77 78 79 80 >>
Time Temp. Humidity Pressure Rain* Wind** Luminosity Snow
1788123187 33.89° C 55% 1018.3 hPa 0 mm - 149 W/m² -
1788122883 33.89° C 55% 1018.4 hPa 0 mm - 169 W/m² -
1788122582 33.89° C 52% 1018.5 hPa 0 mm - 135 W/m² -
1788122278 33.33° C 53% 1018.4 hPa 0 mm - 112 W/m² -
1788121974 33.33° C 60% 1018.6 hPa 0 mm - 120 W/m² -
1788121673 33.33° C 60% 1018.7 hPa 0 mm - 117 W/m² -
1788121369 32.78° C 54% 1018.4 hPa 0 mm - 82 W/m² -
1788121063 33.33° C 55% 1018.8 hPa 0 mm - 115 W/m² -
1788120758 33.33° C 52% 1018.7 hPa 0 mm - 58 W/m² -
1788120453 33.89° C 54% 1018.8 hPa 0 mm - 276 W/m² -
1788120152 33.33° C 53% 1018.8 hPa 0 mm - 284 W/m² -
1788119848 33.33° C 53% 1018.7 hPa 0 mm - 109 W/m² -
1788119546 33.33° C 54% 1019 hPa 0 mm - 75 W/m² -
1788119245 33.33° C 54% 1018.9 hPa 0 mm - 95 W/m² -
1788118940 33.89° C 53% 1018.9 hPa 0 mm - 135 W/m² -
1788118639 34.44° C 52% 1019 hPa 0 mm - 689 W/m² -
1788118335 34.44° C 51% 1019.2 hPa 0 mm - 815 W/m² -
1788118030 34.44° C 56% 1019.2 hPa 0 mm - 464 W/m² -
1788117725 33.89° C 58% 1019.2 hPa 0 mm - 770 W/m² -
1788117421 33.89° C 52% 1019.4 hPa 0 mm - 793 W/m² -
1788117114 33.89° C 52% 1019.3 hPa 0 mm - 807 W/m² -
1788116810 33.33° C 54% 1019.4 hPa 0 mm - 819 W/m² -
1788116505 32.78° C 61% 1019.4 hPa 0 mm - 850 W/m² -
1788116203 32.78° C 57% 1019.6 hPa 0 mm - 148 W/m² -
1788115900 33.33° C 54% 1019.6 hPa 0 mm - 161 W/m² -

* Rain latest hour (hover to see other rain measurements)
** Current wind speed in m/s (hover to see current wind gust speed)